Tracking 20624 objects as of 28-Mar-2020
HD Live streaming from Space Station
objects crossing your sky now

COSMOS 1375

Track COSMOS 1375 now!
10-day predictions
COSMOS 1375 is classified as:


NORAD ID: 13259
Int'l Code: 1982-055A
Perigee: 938.9 km
Apogee: 981.0 km
Inclination: 65.8 °
Period: 104.1 minutes
Semi major axis: 7330 km
RCS: 0.955 m2 (medium)
Launch date: June 6, 1982
Source: Commonwealth of Independent States (former USSR) (CIS)
Launch site: PLESETSK MISSILE AND SPACE COMPLEX (PKMTR)
aabbcc
Your satellite tracking list
Your tracking list is empty




NASA's NSSDC Master Catalog

Two Line Element Set (TLE):
1 13259U 82055A   20087.43329890 +.00000072 +00000-0 +14060-3 0  9998
2 13259 065.8340 344.0831 0028692 239.6295 120.1934 13.83136619899652
Source of the keplerian elements: AFSPC